,,,PA_Meas_PMT16A,,PR_Meas_QMR101_102,,RH_Meas_QMH101,,SR_Meas_QMS101,,TA_Meas_QMH101,,GenWind,,GenWind,
date,time,status,PA,status,PR,status,RH,status,SR,status,TA,status,DirAvg,status,SpdAvg,
2011-10-27, 00:00:05,VALID,999.41,VALID,0,VALID,91.0671,VALID,0,VALID,23.2329,VALID,95,VALID,0.377344,
2011-10-27, 00:01:04,VALID,999.454,VALID,0,VALID,91.029,VALID,0,VALID,23.2329,VALID,95,VALID,0.194531,
2011-10-27, 00:02:04,VALID,999.437,VALID,0,VALID,90.9756,VALID,0,VALID,23.2134,VALID,95,VALID,0.163672,
2011-10-27, 00:03:04,VALID,999.47,VALID,0,VALID,91.0519,VALID,0,VALID,23.1726,VALID,95,VALID,0.196484,
2011-10-27, 00:04:04,VALID,999.516,VALID,0,VALID,91.1587,VALID,0,VALID,23.1531,VALID,95,VALID,0.261328,
2011-10-27, 00:05:04,VALID,999.518,VALID,0,VALID,91.2197,VALID,0,VALID,23.1354,VALID,95,VALID,0.351953,
2011-10-27, 00:06:04,VALID,999.507,VALID,0,VALID,91.174,VALID,0,VALID,23.1159,VALID,95,VALID,0.565234,
2011-10-27, 00:07:04,VALID,999.49,VALID,0,VALID,91.1434,VALID,0.104696,VALID,23.0964,VALID,95,VALID,0.712109,
2011-10-27, 00:08:04,VALID,999.465,VALID,0,VALID,91.235,VALID,0,VALID,23.0556,VALID,95,VALID,0.535937,
2011-10-27, 00:09:04,VALID,999.458,VALID,0,VALID,91.2884,VALID,0,VALID,23.0378,VALID,95,VALID,0.347656,
2011-10-27, 00:10:04,VALID,999.435,VALID,0,VALID,91.441,VALID,0,VALID,23.0183,VALID,95,VALID,0.45,
2011-10-27, 00:11:04,VALID,999.4,VALID,0,VALID,91.5783,VALID,0,VALID,23.0166,VALID,95,VALID,0.555469,
2011-10-27, 00:12:04,VALID,999.377,VALID,0,VALID,91.6088,VALID,0,VALID,23.0378,VALID,13,VALID,0.744922,
2011-10-27, 00:13:04,VALID,999.383,VALID,0,VALID,91.6088,VALID,0,VALID,23.0769,VALID,13,VALID,0.529297,
2011-10-27, 00:14:04,VALID,999.336,VALID,0,VALID,91.6088,VALID,0,VALID,23.0964,VALID,13,VALID,0.286328,
2011-10-27, 00:15:04,VALID,999.349,VALID,0,VALID,91.5554,VALID,0,VALID,23.0769,VALID,13,VALID,0,
2011-10-27, 00:16:04,VALID,999.367,VALID,0,VALID,91.5249,VALID,0,VALID,23.0964,VALID,13,VALID,0,
2011-10-27, 00:17:04,VALID,999.341,VALID,0,VALID,91.5097,VALID,0,VALID,23.0981,VALID,13,VALID,0,
2011-10-27, 00:18:04,VALID,999.355,VALID,0,VALID,91.5936,VALID,0,VALID,23.0964,VALID,15,VALID,0.666406,
2011-10-27, 00:19:04,VALID,999.342,VALID,0,VALID,91.6088,VALID,0,VALID,23.1354,VALID,70,VALID,0.635547,
2011-10-27, 00:20:04,VALID,999.318,VALID,0,VALID,91.6699,VALID,0,VALID,23.1744,VALID,70,VALID,0.557813,
2011-10-27, 00:21:04,VALID,999.276,VALID,0,VALID,91.7157,VALID,0,VALID,23.2134,VALID,70,VALID,0.332422,
2011-10-27, 00:22:04,VALID,999.238,VALID,0,VALID,91.6546,VALID,0,VALID,23.2134,VALID,70,VALID,0.197266,
2011-10-27, 00:23:04,VALID,999.205,VALID,0,VALID,91.4639,VALID,0,VALID,23.1744,VALID,70,VALID,0,
2011-10-27, 00:24:04,VALID,999.187,VALID,0,VALID,91.3876,VALID,0,VALID,23.1549,VALID,70,VALID,0,
2011-10-27, 00:25:04,VALID,999.17,VALID,0,VALID,91.4639,VALID,0,VALID,23.1549,VALID,70,VALID,0.0273438,
2011-10-27, 00:26:04,VALID,999.157,VALID,0,VALID,91.5783,VALID,0,VALID,23.1939,VALID,70,VALID,0.16875,
2011-10-27, 00:27:04,VALID,999.16,VALID,0,VALID,91.5554,VALID,0,VALID,23.2347,VALID,70,VALID,0.0273438,
2011-10-27, 00:28:04,VALID,999.154,VALID,0,VALID,91.4868,VALID,0,VALID,23.2524,VALID,70,VALID,0,
2011-10-27, 00:29:04,VALID,999.192,VALID,0,VALID,91.502,VALID,0,VALID,23.2719,VALID,70,VALID,0,
2011-10-27, 00:30:04,VALID,999.255,VALID,0,VALID,91.5097,VALID,0,VALID,23.3127,VALID,70,VALID,0,
2011-10-27, 00:31:04,VALID,999.296,VALID,0,VALID,91.4868,VALID,0,VALID,23.2915,VALID,70,VALID,0,
2011-10-27, 00:32:04,VALID,999.314,VALID,0,VALID,91.4028,VALID,0,VALID,23.2915,VALID,71,VALID,0.563281,
2011-10-27, 00:33:04,VALID,999.313,VALID,0,VALID,91.3723,VALID,0,VALID,23.2719,VALID,99,VALID,1.17773,
2011-10-27, 00:34:04,VALID,999.331,VALID,0,VALID,91.3494,VALID,0,VALID,23.2719,VALID,103,VALID,1.22305,
2011-10-27, 00:35:04,VALID,999.346,VALID,0,VALID,91.3418,VALID,0,VALID,23.2719,VALID,103,VALID,1.31602,
2011-10-27, 00:36:04,VALID,999.34,VALID,0,VALID,91.2579,VALID,0,VALID,23.2915,VALID,103,VALID,1.31602,
2011-10-27, 00:37:04,VALID,999.337,VALID,0,VALID,91.2121,VALID,0,VALID,23.3305,VALID,101,VALID,1.33711,
2011-10-27, 00:38:04,VALID,999.338,VALID,0,VALID,91.0366,VALID,0,VALID,23.35,VALID,96,VALID,1.28945,
2011-10-27, 00:39:04,VALID,999.334,VALID,0,VALID,90.9069,VALID,0,VALID,23.3713,VALID,96,VALID,1.34453,
2011-10-27, 00:40:04,VALID,999.269,VALID,0,VALID,90.7467,VALID,0,VALID,23.3713,VALID,94,VALID,1.32461,
2011-10-27, 00:41:04,VALID,999.303,VALID,0,VALID,90.6475,VALID,0,VALID,23.3713,VALID,88,VALID,1.01016,
2011-10-27, 00:42:04,VALID,999.273,VALID,0,VALID,90.4568,VALID,0,VALID,23.3695,VALID,86,VALID,1.34492,
2011-10-27, 00:43:04,VALID,999.26,VALID,0,VALID,90.3042,VALID,0,VALID,23.3695,VALID,83,VALID,1.25898,
2011-10-27, 00:44:04,VALID,999.241,VALID,0,VALID,90.2279,VALID,0,VALID,23.3695,VALID,84,VALID,0.991797,
2011-10-27, 00:45:04,VALID,999.22,VALID,0,VALID,90.0982,VALID,0,VALID,23.3713,VALID,80,VALID,0.948438,
2011-10-27, 00:46:04,VALID,999.249,VALID,0,VALID,89.9685,VALID,0,VALID,23.35,VALID,71,VALID,0.845312,
2011-10-27, 00:47:04,VALID,999.251,VALID,0,VALID,89.8235,VALID,0,VALID,23.3305,VALID,71,VALID,0.698047,
2011-10-27, 00:48:04,VALID,999.243,VALID,0,VALID,89.7549,VALID,0,VALID,23.35,VALID,71,VALID,0.385156,
2011-10-27, 00:49:04,VALID,999.249,VALID,0,VALID,89.7472,VALID,0,VALID,23.3518,VALID,71,VALID,0.228906,
2011-10-27, 00:50:04,VALID,999.226,VALID,0,VALID,89.7549,VALID,0,VALID,23.3323,VALID,71,VALID,0,
2011-10-27, 00:51:04,VALID,999.225,VALID,0,VALID,89.8388,VALID,0,VALID,23.311,VALID,71,VALID,0.185156,
2011-10-27, 00:52:04,VALID,999.239,VALID,0,VALID,89.9074,VALID,0,VALID,23.3323,VALID,71,VALID,0.337891,
2011-10-27, 00:53:04,VALID,999.198,VALID,0,VALID,89.8083,VALID,0,VALID,23.3305,VALID,71,VALID,0.103125,
2011-10-27, 00:54:04,VALID,999.182,VALID,0,VALID,89.6938,VALID,0,VALID,23.3305,VALID,71,VALID,0.00429688,
2011-10-27, 00:55:04,VALID,999.179,VALID,0,VALID,89.5717,VALID,0,VALID,23.35,VALID,71,VALID,0,
2011-10-27, 00:56:04,VALID,999.187,VALID,0,VALID,89.6175,VALID,0,VALID,23.3305,VALID,71,VALID,0,
2011-10-27, 00:57:04,VALID,999.16,VALID,0,VALID,89.6557,VALID,0,VALID,23.311,VALID,71,VALID,0.140625,
2011-10-27, 00:58:04,VALID,999.137,VALID,0,VALID,89.7167,VALID,0,VALID,23.3305,VALID,71,VALID,0.185937,
2011-10-27, 00:59:04,VALID,999.119,VALID,0,VALID,89.793,VALID,0,VALID,23.3305,VALID,71,VALID,0,
2011-10-27, 01:00:04,VALID,999.108,VALID,0,VALID,89.8006,VALID,0,VALID,23.3305,VALID,71,VALID,0,
2011-10-27, 01:01:04,VALID,999.116,VALID,0,VALID,89.7777,VALID,0,VALID,23.3305,VALID,71,VALID,0,
2011-10-27, 01:02:04,VALID,999.101,VALID,0,VALID,89.8159,VALID,0,VALID,23.311,VALID,71,VALID,0,
2011-10-27, 01:03:04,VALID,999.116,VALID,0,VALID,89.8311,VALID,0,VALID,23.311,VALID,71,VALID,0,
2011-10-27, 01:04:04,VALID,999.107,VALID,0,VALID,89.9303,VALID,0,VALID,23.311,VALID,71,VALID,0,
2011-10-27, 01:05:04,VALID,999.094,VALID,0,VALID,90.1745,VALID,0,VALID,23.2524,VALID,71,VALID,0,
2011-10-27, 01:06:04,VALID,999.086,VALID,0,VALID,90.4034,VALID,0,VALID,23.2329,VALID,71,VALID,0,
2011-10-27, 01:07:04,VALID,999.061,VALID,0,VALID,90.556,VALID,0,VALID,23.1939,VALID,71,VALID,0,
2011-10-27, 01:08:04,VALID,998.983,VALID,0,VALID,90.6704,VALID,0,VALID,23.1744,VALID,71,VALID,0,
2011-10-27, 01:09:04,VALID,998.959,VALID,0,VALID,90.7162,VALID,0,VALID,23.1744,VALID,71,VALID,0,
2011-10-27, 01:10:04,VALID,998.91,VALID,0,VALID,90.7162,VALID,0,VALID,23.1549,VALID,71,VALID,0,
2011-10-27, 01:11:04,VALID,998.894,VALID,0,VALID,90.7772,VALID,0,VALID,23.1159,VALID,71,VALID,0,
2011-10-27, 01:12:04,VALID,998.873,VALID,0,VALID,90.8611,VALID,0,VALID,23.0964,VALID,71,VALID,0,
2011-10-27, 01:13:04,VALID,998.823,VALID,0,VALID,90.9909,VALID,0,VALID,23.0964,VALID,71,VALID,0,
2011-10-27, 01:14:04,VALID,998.847,VALID,0,VALID,91.0824,VALID,0,VALID,23.0769,VALID,71,VALID,0,
2011-10-27, 01:15:04,VALID,998.85,VALID,0,VALID,91.0748,VALID,0,VALID,23.0378,VALID,71,VALID,0,
2011-10-27, 01:16:04,VALID,998.84,VALID,0,VALID,91.2884,VALID,0,VALID,23.0183,VALID,71,VALID,0.362109,
2011-10-27, 01:17:04,VALID,998.817,VALID,0,VALID,91.502,VALID,0,VALID,23.0378,VALID,71,VALID,0,
2011-10-27, 01:18:04,VALID,998.828,VALID,0,VALID,91.5173,VALID,0,VALID,23.0378,VALID,71,VALID,0,
2011-10-27, 01:19:04,VALID,998.81,VALID,0,VALID,91.441,VALID,0,VALID,22.9988,VALID,71,VALID,0.374219,
2011-10-27, 01:20:04,VALID,998.814,VALID,0,VALID,91.6775,VALID,0,VALID,23.0183,VALID,71,VALID,0.478516,
2011-10-27, 01:21:04,VALID,998.812,VALID,0,VALID,91.914,VALID,0,VALID,22.9971,VALID,71,VALID,0.562109,
2011-10-27, 01:22:04,VALID,998.807,VALID,0,VALID,92.0132,VALID,0,VALID,23.0183,VALID,71,VALID,0.488281,
2011-10-27, 01:23:04,VALID,998.815,VALID,0,VALID,92.0437,VALID,0,VALID,22.9598,VALID,71,VALID,0.515234,
2011-10-27, 01:24:04,VALID,998.785,VALID,0,VALID,92.1658,VALID,0,VALID,22.9793,VALID,71,VALID,0.302734,
2011-10-27, 01:25:04,VALID,998.808,VALID,0,VALID,92.0971,VALID,0,VALID,22.9208,VALID,60,VALID,0.835547,
2011-10-27, 01:26:04,VALID,998.836,VALID,0,VALID,92.1963,VALID,0,VALID,22.9208,VALID,60,VALID,0.526563,
2011-10-27, 01:27:04,VALID,998.83,VALID,0,VALID,92.204,VALID,0,VALID,22.9013,VALID,60,VALID,0.0621094,
2011-10-27, 01:28:04,VALID,998.875,VALID,0,VALID,92.3031,VALID,0,VALID,22.9013,VALID,60,VALID,0.0433594,
2011-10-27, 01:29:04,VALID,998.906,VALID,0,VALID,92.3337,VALID,0,VALID,22.9013,VALID,62,VALID,1.61445,
2011-10-27, 01:30:04,VALID,998.968,VALID,0,VALID,92.4023,VALID,0,VALID,22.8818,VALID,75,VALID,1.14922,
2011-10-27, 01:31:04,VALID,998.922,VALID,0,VALID,92.4863,VALID,0,VALID,22.8818,VALID,73,VALID,1.1332,
2011-10-27, 01:32:04,VALID,998.913,VALID,0,VALID,92.5473,VALID,0,VALID,22.8818,VALID,57,VALID,1.05313,
2011-10-27, 01:33:04,VALID,998.885,VALID,0,VALID,92.6465,VALID,0,VALID,22.8818,VALID,41,VALID,0.695703,
2011-10-27, 01:34:04,VALID,998.873,VALID,0,VALID,92.6923,VALID,0,VALID,22.8605,VALID,25,VALID,0.992188,
2011-10-27, 01:35:04,VALID,998.867,VALID,0,VALID,92.7838,VALID,0,VALID,22.8818,VALID,14,VALID,0.917188,
2011-10-27, 01:36:04,VALID,998.852,VALID,0,VALID,92.8677,VALID,0,VALID,22.8818,VALID,14,VALID,1.0707,
2011-10-27, 01:37:04,VALID,998.872,VALID,0,VALID,92.8754,VALID,0,VALID,22.8818,VALID,33,VALID,1.30938,
2011-10-27, 01:38:04,VALID,998.863,VALID,0,VALID,92.9593,VALID,0,VALID,22.8623,VALID,24,VALID,1.01211,
2011-10-27, 01:39:04,VALID,998.865,VALID,0,VALID,92.9822,VALID,0,VALID,22.8623,VALID,24,VALID,0.81875,
2011-10-27, 01:40:04,VALID,998.901,VALID,0,VALID,93.0508,VALID,0,VALID,22.8427,VALID,43,VALID,1.15469,
2011-10-27, 01:41:04,VALID,998.871,VALID,0,VALID,93.1348,VALID,0,VALID,22.8623,VALID,55,VALID,1.21992,
2011-10-27, 01:42:04,VALID,998.898,VALID,0,VALID,93.2187,VALID,0,VALID,22.8818,VALID,54,VALID,1.23477,
2011-10-27, 01:43:04,VALID,998.923,VALID,0,VALID,93.2492,VALID,0,VALID,22.9013,VALID,55,VALID,0.952344,
2011-10-27, 01:44:04,VALID,998.917,VALID,0,VALID,93.295,VALID,0,VALID,22.9208,VALID,90,VALID,1.05977,
2011-10-27, 01:45:04,VALID,998.899,VALID,0,VALID,93.3255,VALID,0,VALID,22.9403,VALID,85,VALID,0.960547,
2011-10-27, 01:46:04,VALID,998.901,VALID,0,VALID,93.3484,VALID,0,VALID,22.9598,VALID,83,VALID,0.585547,
2011-10-27, 01:47:04,VALID,998.899,VALID,0,VALID,93.3408,VALID,0,VALID,22.9793,VALID,83,VALID,0.606641,
2011-10-27, 01:48:04,VALID,998.896,VALID,0,VALID,93.3331,VALID,0,VALID,22.9793,VALID,83,VALID,0.448047,
2011-10-27, 01:49:04,VALID,998.885,VALID,0,VALID,93.3103,VALID,0,VALID,22.9988,VALID,83,VALID,0.545313,
2011-10-27, 01:50:04,VALID,998.87,VALID,0,VALID,93.2645,VALID,0,VALID,22.9988,VALID,83,VALID,0.336328,
2011-10-27, 01:51:04,VALID,998.863,VALID,0,VALID,93.2568,VALID,0,VALID,22.9793,VALID,83,VALID,0.349219,
2011-10-27, 01:52:04,VALID,998.857,VALID,0,VALID,93.234,VALID,0,VALID,22.9793,VALID,83,VALID,0.459375,
2011-10-27, 01:53:04,VALID,998.864,VALID,0,VALID,93.2034,VALID,0,VALID,22.9598,VALID,83,VALID,0.271484,
2011-10-27, 01:54:04,VALID,998.893,VALID,0,VALID,93.1805,VALID,0,VALID,22.9403,VALID,83,VALID,0,
2011-10-27, 01:55:04,VALID,998.925,VALID,0,VALID,93.1882,VALID,0,VALID,22.9403,VALID,83,VALID,0,
2011-10-27, 01:56:04,VALID,998.923,VALID,0,VALID,93.15,VALID,0,VALID,22.9208,VALID,83,VALID,0.330078,
2011-10-27, 01:57:04,VALID,998.976,VALID,0,VALID,93.1729,VALID,0,VALID,22.88,VALID,83,VALID,0.463672,
2011-10-27, 01:58:04,VALID,998.916,VALID,0,VALID,93.1653,VALID,0,VALID,22.9013,VALID,83,VALID,0.448438,
2011-10-27, 01:59:04,VALID,998.923,VALID,0,VALID,93.2034,VALID,0,VALID,22.9208,VALID,83,VALID,0.413672,
2011-10-27, 02:00:04,VALID,998.927,VALID,0,VALID,93.2111,VALID,0,VALID,22.942,VALID,83,VALID,0.295703,
2011-10-27, 02:01:04,VALID,998.894,VALID,0,VALID,93.2034,VALID,0,VALID,22.9403,VALID,83,VALID,0.442187,
2011-10-27, 02:02:04,VALID,998.874,VALID,0,VALID,93.2034,VALID,0,VALID,22.9598,VALID,83,VALID,0.157422,
2011-10-27, 02:03:04,VALID,998.827,VALID,0,VALID,93.1348,VALID,0,VALID,22.9793,VALID,83,VALID,0.283203,
2011-10-27, 02:04:04,VALID,998.8,VALID,0,VALID,93.1119,VALID,0,VALID,22.9988,VALID,83,VALID,0.314844,
2011-10-27, 02:05:04,VALID,998.738,VALID,0,VALID,93.0585,VALID,0,VALID,23.0378,VALID,89,VALID,0.710938,
2011-10-27, 02:06:04,VALID,998.749,VALID,0,VALID,92.9745,VALID,0,VALID,23.0769,VALID,101,VALID,0.830859,
2011-10-27, 02:07:04,VALID,998.739,VALID,0,VALID,92.8906,VALID,0,VALID,23.0751,VALID,101,VALID,0.504687,
2011-10-27, 02:08:04,VALID,998.721,VALID,0,VALID,92.7991,VALID,0,VALID,23.1354,VALID,105,VALID,0.423828,
2011-10-27, 02:09:04,VALID,998.719,VALID,0,VALID,92.7685,VALID,0,VALID,23.1744,VALID,102,VALID,0.6875,
2011-10-27, 02:10:04,VALID,998.733,VALID,0,VALID,92.6846,VALID,0,VALID,23.1744,VALID,102,VALID,0.536719,
2011-10-27, 02:11:04,VALID,998.712,VALID,0,VALID,92.5778,VALID,0,VALID,23.1939,VALID,88,VALID,0.543359,
2011-10-27, 02:12:04,VALID,998.763,VALID,0,VALID,92.5015,VALID,0,VALID,23.1744,VALID,88,VALID,0.695703,
2011-10-27, 02:13:04,VALID,998.732,VALID,0,VALID,92.4176,VALID,0,VALID,23.1549,VALID,87,VALID,0.683203,
2011-10-27, 02:14:04,VALID,998.768,VALID,0,VALID,92.3413,VALID,0,VALID,23.1354,VALID,87,VALID,0.316406,
2011-10-27, 02:15:04,VALID,998.715,VALID,0,VALID,92.2726,VALID,0,VALID,23.1354,VALID,87,VALID,0.26875,
2011-10-27, 02:16:04,VALID,998.688,VALID,0,VALID,92.265,VALID,0,VALID,23.0964,VALID,87,VALID,0.392188,
2011-10-27, 02:17:04,VALID,998.662,VALID,0,VALID,92.2574,VALID,0,VALID,23.0964,VALID,64,VALID,0.527344,
2011-10-27, 02:18:04,VALID,998.658,VALID,0,VALID,92.3031,VALID,0,VALID,23.0964,VALID,313,VALID,0.805469,
2011-10-27, 02:19:04,VALID,998.669,VALID,0,VALID,92.3413,VALID,0,VALID,23.0964,VALID,308,VALID,0.428906,
2011-10-27, 02:20:04,VALID,998.672,VALID,0,VALID,92.3947,VALID,0,VALID,23.1159,VALID,308,VALID,0.521094,
2011-10-27, 02:21:04,VALID,998.627,VALID,0,VALID,92.41,VALID,0,VALID,23.1354,VALID,308,VALID,0.864062,
2011-10-27, 02:22:04,VALID,998.617,VALID,0,VALID,92.4786,VALID,0,VALID,23.1354,VALID,311,VALID,1.03242,
2011-10-27, 02:23:04,VALID,998.612,VALID,0,VALID,92.5626,VALID,0,VALID,23.1549,VALID,316,VALID,0.867188,
2011-10-27, 02:24:04,VALID,998.565,VALID,0,VALID,92.6007,VALID,0,VALID,23.1549,VALID,316,VALID,0.60625,
2011-10-27, 02:25:04,VALID,998.579,VALID,0,VALID,92.5702,VALID,0,VALID,23.1939,VALID,338,VALID,0.654688,
2011-10-27, 02:26:04,VALID,998.575,VALID,0,VALID,92.5473,VALID,0,VALID,23.1939,VALID,343,VALID,0.54375,
2011-10-27, 02:27:04,VALID,998.599,VALID,0,VALID,92.532,VALID,0,VALID,23.2329,VALID,344,VALID,0.728125,
2011-10-27, 02:28:04,VALID,998.608,VALID,0,VALID,92.4328,VALID,0,VALID,23.2329,VALID,353,VALID,0.704687,
2011-10-27, 02:29:04,VALID,998.594,VALID,0,VALID,92.4557,VALID,0,VALID,23.1939,VALID,353,VALID,0.654688,
2011-10-27, 02:30:04,VALID,998.55,VALID,0,VALID,92.5091,VALID,0,VALID,23.1957,VALID,343,VALID,0.569531,
2011-10-27, 02:31:04,VALID,998.502,VALID,0,VALID,92.6236,VALID,0,VALID,23.1762,VALID,331,VALID,0.624219,
2011-10-27, 02:32:04,VALID,998.47,VALID,0,VALID,92.6541,VALID,0,VALID,23.1354,VALID,321,VALID,0.462891,
2011-10-27, 02:33:04,VALID,998.466,VALID,0,VALID,92.7228,VALID,0,VALID,23.1159,VALID,321,VALID,0.394531,
2011-10-27, 02:34:04,VALID,998.519,VALID,0,VALID,92.8067,VALID,0,VALID,23.1159,VALID,321,VALID,0.563281,
2011-10-27, 02:35:04,VALID,998.513,VALID,0,VALID,92.8296,VALID,0,VALID,23.1159,VALID,321,VALID,0.540234,
2011-10-27, 02:36:04,VALID,998.528,VALID,0,VALID,92.883,VALID,0,VALID,23.1159,VALID,321,VALID,0.344922,
2011-10-27, 02:37:04,VALID,998.479,VALID,0,VALID,92.9135,VALID,0,VALID,23.1159,VALID,321,VALID,0.0875,
2011-10-27, 02:38:04,VALID,998.45,VALID,0,VALID,92.9288,VALID,0,VALID,23.1159,VALID,321,VALID,0,
2011-10-27, 02:39:04,VALID,998.419,VALID,0,VALID,92.9669,VALID,0,VALID,23.1159,VALID,321,VALID,0,
2011-10-27, 02:40:04,VALID,998.441,VALID,0,VALID,93.0051,VALID,0,VALID,23.1159,VALID,321,VALID,0,
2011-10-27, 02:41:04,VALID,998.51,VALID,0,VALID,93.0127,VALID,0,VALID,23.1159,VALID,321,VALID,0,
2011-10-27, 02:42:04,VALID,998.512,VALID,0,VALID,93.0585,VALID,0,VALID,23.1159,VALID,321,VALID,0,
2011-10-27, 02:43:04,VALID,998.543,VALID,0,VALID,93.089,VALID,0,VALID,23.1159,VALID,321,VALID,0.169531,
2011-10-27, 02:44:04,VALID,998.541,VALID,0,VALID,93.0814,VALID,0,VALID,23.1159,VALID,321,VALID,0.296484,
2011-10-27, 02:45:04,VALID,998.505,VALID,0,VALID,93.1043,VALID,0,VALID,23.1159,VALID,321,VALID,0,
2011-10-27, 02:46:04,VALID,998.506,VALID,0,VALID,93.0814,VALID,0,VALID,23.1159,VALID,321,VALID,0,
2011-10-27, 02:47:04,VALID,998.463,VALID,0,VALID,93.0966,VALID,0,VALID,23.1159,VALID,321,VALID,0,
2011-10-27, 02:48:04,VALID,998.439,VALID,0,VALID,93.0966,VALID,0,VALID,23.1159,VALID,321,VALID,0,
2011-10-27, 02:49:04,VALID,998.385,VALID,0,VALID,93.089,VALID,0,VALID,23.1159,VALID,321,VALID,0,
2011-10-27, 02:50:04,VALID,998.364,VALID,0,VALID,93.089,VALID,0,VALID,23.1354,VALID,321,VALID,0,
2011-10-27, 02:51:04,VALID,998.394,VALID,0,VALID,93.0814,VALID,0,VALID,23.1371,VALID,321,VALID,0,
2011-10-27, 02:52:04,VALID,998.374,VALID,0,VALID,93.0737,VALID,0,VALID,23.1159,VALID,321,VALID,0,
2011-10-27, 02:53:04,VALID,998.372,VALID,0,VALID,93.0661,VALID,0,VALID,23.1354,VALID,351,VALID,0.558984,
2011-10-27, 02:54:04,VALID,998.333,VALID,0,VALID,93.1119,VALID,0,VALID,23.1531,VALID,352,VALID,0.258984,
2011-10-27, 02:55:04,VALID,998.298,VALID,0,VALID,93.1119,VALID,0,VALID,23.1744,VALID,351,VALID,0,
2011-10-27, 02:56:04,VALID,998.32,VALID,0,VALID,93.1119,VALID,0,VALID,23.1744,VALID,352,VALID,0,
2011-10-27, 02:57:04,VALID,998.307,VALID,0,VALID,93.1195,VALID,0,VALID,23.1549,VALID,351,VALID,0,
2011-10-27, 02:58:04,VALID,998.322,VALID,0,VALID,93.15,VALID,0,VALID,23.1549,VALID,351,VALID,0.961719,
2011-10-27, 02:59:04,VALID,998.309,VALID,0,VALID,93.2034,VALID,0,VALID,23.1744,VALID,1,VALID,0.649219,
2011-10-27, 03:00:04,VALID,998.302,VALID,0,VALID,93.234,VALID,0,VALID,23.1354,VALID,1,VALID,0.258594,
2011-10-27, 03:01:04,VALID,998.27,VALID,0,VALID,93.2416,VALID,0,VALID,23.1159,VALID,1,VALID,0,
2011-10-27, 03:02:04,VALID,998.254,VALID,0,VALID,93.2874,VALID,0,VALID,23.1354,VALID,1,VALID,0,
2011-10-27, 03:03:04,VALID,998.208,VALID,0,VALID,93.3179,VALID,0,VALID,23.1159,VALID,1,VALID,0,
2011-10-27, 03:04:04,VALID,998.183,VALID,0,VALID,93.3408,VALID,0,VALID,23.1159,VALID,1,VALID,0,
2011-10-27, 03:05:04,VALID,998.151,VALID,0,VALID,93.356,VALID,0,VALID,23.1159,VALID,1,VALID,0,
2011-10-27, 03:06:04,VALID,998.188,VALID,0,VALID,93.3942,VALID,0,VALID,23.1354,VALID,1,VALID,0,
2011-10-27, 03:07:04,VALID,998.173,VALID,0,VALID,93.4323,VALID,0,VALID,23.1354,VALID,1,VALID,0,
2011-10-27, 03:08:04,VALID,998.215,VALID,0,VALID,93.44,VALID,0,VALID,23.1549,VALID,1,VALID,0,
2011-10-27, 03:09:04,VALID,998.255,VALID,0,VALID,93.44,VALID,0,VALID,23.1549,VALID,1,VALID,0,
2011-10-27, 03:10:04,VALID,998.291,VALID,0,VALID,93.4552,VALID,0,VALID,23.1549,VALID,1,VALID,0,
2011-10-27, 03:11:04,VALID,998.305,VALID,0,VALID,93.4323,VALID,0,VALID,23.1549,VALID,1,VALID,0,
2011-10-27, 03:12:04,VALID,998.354,VALID,0,VALID,93.44,VALID,0,VALID,23.1354,VALID,1,VALID,0,
2011-10-27, 03:13:04,VALID,998.38,VALID,0,VALID,93.44,VALID,0,VALID,23.1354,VALID,1,VALID,0,
2011-10-27, 03:14:04,VALID,998.341,VALID,0,VALID,93.4171,VALID,0,VALID,23.0964,VALID,1,VALID,0,
2011-10-27, 03:15:04,VALID,998.305,VALID,0,VALID,93.4628,VALID,0,VALID,23.0556,VALID,1,VALID,0,
2011-10-27, 03:16:04,VALID,998.284,VALID,0,VALID,93.4476,VALID,0,VALID,23.0361,VALID,1,VALID,0,
2011-10-27, 03:17:04,VALID,998.276,VALID,0,VALID,93.4705,VALID,0,VALID,23.0183,VALID,1,VALID,0,
2011-10-27, 03:18:04,VALID,998.293,VALID,0,VALID,93.4857,VALID,0,VALID,23.0183,VALID,1,VALID,0,
2011-10-27, 03:19:04,VALID,998.325,VALID,0,VALID,93.5239,VALID,0,VALID,22.9971,VALID,1,VALID,0,
2011-10-27, 03:20:04,VALID,998.394,VALID,0,VALID,93.562,VALID,0,VALID,22.9988,VALID,1,VALID,0,
2011-10-27, 03:21:04,VALID,998.42,VALID,0,VALID,93.5697,VALID,0,VALID,22.9988,VALID,1,VALID,0,
2011-10-27, 03:22:04,VALID,998.425,VALID,0,VALID,93.6078,VALID,0,VALID,22.9988,VALID,1,VALID,0,
2011-10-27, 03:23:04,VALID,998.433,VALID,0,VALID,93.646,VALID,0,VALID,22.9988,VALID,1,VALID,0,
2011-10-27, 03:24:04,VALID,998.417,VALID,0,VALID,93.6612,VALID,0,VALID,23.0183,VALID,15,VALID,1.02227,
2011-10-27, 03:25:04,VALID,998.444,VALID,0,VALID,93.6917,VALID,0,VALID,23.0378,VALID,16,VALID,0.974609,
2011-10-27, 03:26:04,VALID,998.439,VALID,0,VALID,93.707,VALID,0,VALID,23.0183,VALID,16,VALID,1.05898,
2011-10-27, 03:27:04,VALID,998.45,VALID,0,VALID,93.6994,VALID,0,VALID,22.9793,VALID,16,VALID,1.02773,
2011-10-27, 03:28:04,VALID,998.452,VALID,0,VALID,93.6994,VALID,0,VALID,22.9403,VALID,16,VALID,0.798047,
2011-10-27, 03:29:04,VALID,998.455,VALID,0,VALID,93.707,VALID,0,VALID,22.9013,VALID,28,VALID,0.937109,
2011-10-27, 03:30:04,VALID,998.451,VALID,0,VALID,93.6994,VALID,0,VALID,22.8427,VALID,28,VALID,0.869531,
2011-10-27, 03:31:04,VALID,998.471,VALID,0,VALID,93.6841,VALID,0,VALID,22.8445,VALID,28,VALID,0.6125,
2011-10-27, 03:32:04,VALID,998.462,VALID,0,VALID,93.6688,VALID,0,VALID,22.8037,VALID,28,VALID,0.703125,
2011-10-27, 03:33:04,VALID,998.511,VALID,0,VALID,93.6841,VALID,0,VALID,22.7842,VALID,28,VALID,0.757422,
2011-10-27, 03:34:04,VALID,998.493,VALID,0,VALID,93.6917,VALID,0,VALID,22.7647,VALID,28,VALID,0.645703,
2011-10-27, 03:35:04,VALID,998.497,VALID,0,VALID,93.6994,VALID,0,VALID,22.7452,VALID,28,VALID,0.487109,
2011-10-27, 03:36:04,VALID,998.512,VALID,0,VALID,93.6765,VALID,0,VALID,22.6867,VALID,28,VALID,0.597656,
2011-10-27, 03:37:04,VALID,998.499,VALID,0,VALID,93.6917,VALID,0,VALID,22.6672,VALID,25,VALID,0.702344,
2011-10-27, 03:38:04,VALID,998.527,VALID,0,VALID,93.707,VALID,0,VALID,22.6672,VALID,24,VALID,0.577344,
2011-10-27, 03:39:04,VALID,998.541,VALID,0,VALID,93.7604,VALID,0,VALID,22.6672,VALID,24,VALID,0.657422,
2011-10-27, 03:40:04,VALID,998.533,VALID,0,VALID,93.7757,VALID,0,VALID,22.7062,VALID,24,VALID,0.649609,
2011-10-27, 03:41:04,VALID,998.529,VALID,0,VALID,93.8214,VALID,0,VALID,22.685,VALID,24,VALID,0.828906,
2011-10-27, 03:42:04,VALID,998.51,VALID,0,VALID,93.8596,VALID,0,VALID,22.7257,VALID,13,VALID,0.756641,
2011-10-27, 03:43:04,VALID,998.511,VALID,0,VALID,93.8596,VALID,0,VALID,22.7257,VALID,11,VALID,0.478125,
2011-10-27, 03:44:04,VALID,998.527,VALID,0,VALID,93.8672,VALID,0,VALID,22.7062,VALID,11,VALID,0.714844,
2011-10-27, 03:45:04,VALID,998.533,VALID,0,VALID,93.8977,VALID,0,VALID,22.6672,VALID,11,VALID,0.663281,
2011-10-27, 03:46:04,VALID,998.564,VALID,0,VALID,93.8825,VALID,0,VALID,22.6477,VALID,11,VALID,0.643359,
2011-10-27, 03:47:04,VALID,998.563,VALID,0,VALID,93.8977,VALID,0,VALID,22.6282,VALID,11,VALID,0.608203,
2011-10-27, 03:48:04,VALID,998.539,VALID,0,VALID,93.913,VALID,0,VALID,22.5892,VALID,11,VALID,0.547266,
2011-10-27, 03:49:04,VALID,998.584,VALID,0,VALID,93.9359,VALID,0,VALID,22.5696,VALID,23,VALID,0.7875,
2011-10-27, 03:50:04,VALID,998.582,VALID,0,VALID,93.9206,VALID,0,VALID,22.5892,VALID,66,VALID,0.789844,
2011-10-27, 03:51:04,VALID,998.588,VALID,0,VALID,93.913,VALID,0,VALID,22.5501,VALID,67,VALID,0.684766,